Year,Month,Day,Hour,Minute,Value (Times are PST for temperature in C)
2007,11,27,00,00,4.30
2007,11,27,00,01,4.30
2007,11,27,00,02,4.30
2007,11,27,00,03,4.40
2007,11,27,00,04,4.50
2007,11,27,00,05,4.60
2007,11,27,00,06,4.60
2007,11,27,00,07,4.70
2007,11,27,00,08,4.80
2007,11,27,00,09,4.80
2007,11,27,00,10,4.80
2007,11,27,00,11,4.80
2007,11,27,00,12,4.80
2007,11,27,00,13,4.80
2007,11,27,00,14,4.90
2007,11,27,00,15,4.90
2007,11,27,00,16,4.90
2007,11,27,00,17,4.90
2007,11,27,00,18,4.90
2007,11,27,00,19,4.90
2007,11,27,00,20,4.90
2007,11,27,00,21,4.90
2007,11,27,00,22,4.90
2007,11,27,00,23,4.90
2007,11,27,00,24,4.90
2007,11,27,00,25,4.90
2007,11,27,00,26,4.90
2007,11,27,00,27,4.90
2007,11,27,00,28,4.90
2007,11,27,00,29,5.00
2007,11,27,00,30,5.10
2007,11,27,00,31,5.10
2007,11,27,00,32,5.10
2007,11,27,00,33,5.10
2007,11,27,00,34,5.10
2007,11,27,00,35,5.10
2007,11,27,00,36,5.20
2007,11,27,00,37,5.20
2007,11,27,00,38,5.10
2007,11,27,00,39,5.10
2007,11,27,00,40,5.10
2007,11,27,00,41,5.10
2007,11,27,00,42,5.10
2007,11,27,00,43,5.10
2007,11,27,00,44,5.10
2007,11,27,00,45,4.90
2007,11,27,00,46,4.90
2007,11,27,00,47,4.90
2007,11,27,00,48,4.90
2007,11,27,00,49,4.90
2007,11,27,00,50,4.90
2007,11,27,00,51,4.90
2007,11,27,00,52,4.80
2007,11,27,00,53,4.90
2007,11,27,00,54,4.90
2007,11,27,00,55,4.90
2007,11,27,00,56,4.90
2007,11,27,00,57,4.90
2007,11,27,00,58,5.10
2007,11,27,00,59,5.10
2007,11,27,01,00,5.10
2007,11,27,01,01,5.10
2007,11,27,01,02,5.00
2007,11,27,01,03,4.90
2007,11,27,01,04,4.90
2007,11,27,01,05,4.90
2007,11,27,01,06,4.90
2007,11,27,01,07,4.90
2007,11,27,01,08,4.90
2007,11,27,01,09,4.80
2007,11,27,01,10,4.80
2007,11,27,01,11,4.80
2007,11,27,01,12,4.80
2007,11,27,01,13,4.80
2007,11,27,01,14,4.80
2007,11,27,01,15,4.70
2007,11,27,01,16,4.60
2007,11,27,01,17,4.60
2007,11,27,01,18,4.60
2007,11,27,01,19,4.70
2007,11,27,01,20,4.70
2007,11,27,01,21,4.70
2007,11,27,01,22,4.70
2007,11,27,01,23,4.60
2007,11,27,01,24,4.60
2007,11,27,01,25,4.50
2007,11,27,01,26,4.50
2007,11,27,01,27,4.60
2007,11,27,01,28,4.60
2007,11,27,01,29,4.60
2007,11,27,01,30,4.60
2007,11,27,01,31,4.60
2007,11,27,01,32,4.60
2007,11,27,01,33,4.60
2007,11,27,01,34,4.60
2007,11,27,01,35,4.60
2007,11,27,01,36,4.60
2007,11,27,01,37,4.60
2007,11,27,01,38,4.60
2007,11,27,01,39,4.60
2007,11,27,01,40,4.60
2007,11,27,01,41,4.60
2007,11,27,01,42,4.50
2007,11,27,01,43,4.50
2007,11,27,01,44,4.50
2007,11,27,01,45,4.50
2007,11,27,01,46,4.50
2007,11,27,01,47,4.40
2007,11,27,01,48,4.40
2007,11,27,01,49,4.40
2007,11,27,01,50,4.40
2007,11,27,01,51,4.40
2007,11,27,01,52,4.40
2007,11,27,01,53,4.40
2007,11,27,01,54,4.40
2007,11,27,01,55,4.50
2007,11,27,01,56,4.50
2007,11,27,01,57,4.60
2007,11,27,01,58,4.60
2007,11,27,01,59,4.60
2007,11,27,02,00,4.60
2007,11,27,02,01,4.60
2007,11,27,02,02,4.70
2007,11,27,02,03,4.70
2007,11,27,02,04,4.70
2007,11,27,02,05,4.70
2007,11,27,02,06,4.80
2007,11,27,02,07,4.80
2007,11,27,02,08,4.80
2007,11,27,02,09,4.80
2007,11,27,02,10,4.80
2007,11,27,02,11,4.80
2007,11,27,02,12,4.80
2007,11,27,02,13,4.80
2007,11,27,02,14,4.80
2007,11,27,02,15,4.80
2007,11,27,02,16,4.90
2007,11,27,02,17,4.80
2007,11,27,02,18,4.80
2007,11,27,02,19,4.80
2007,11,27,02,20,4.80
2007,11,27,02,21,4.80
2007,11,27,02,22,4.80
2007,11,27,02,23,4.80
2007,11,27,02,24,4.80
2007,11,27,02,25,4.90
2007,11,27,02,26,4.90
2007,11,27,02,27,4.90
2007,11,27,02,28,4.90
2007,11,27,02,29,4.90
2007,11,27,02,30,4.90
2007,11,27,02,31,4.90
2007,11,27,02,32,4.90
2007,11,27,02,33,4.80
2007,11,27,02,34,4.80
2007,11,27,02,35,4.80
2007,11,27,02,36,4.80
2007,11,27,02,37,4.80
2007,11,27,02,38,4.80
2007,11,27,02,39,4.80
2007,11,27,02,40,4.80
2007,11,27,02,41,4.80
2007,11,27,02,42,4.80
2007,11,27,02,43,4.80
2007,11,27,02,44,4.80
2007,11,27,02,45,4.90
2007,11,27,02,46,4.90
2007,11,27,02,47,4.90
2007,11,27,02,48,4.90
2007,11,27,02,49,4.90
2007,11,27,02,50,4.90
2007,11,27,02,51,4.90
2007,11,27,02,52,4.90
2007,11,27,02,53,4.90
2007,11,27,02,54,4.90
2007,11,27,02,55,4.90
2007,11,27,02,56,4.90
2007,11,27,02,57,5.00
2007,11,27,02,58,5.10
2007,11,27,02,59,5.10
2007,11,27,03,00,5.10
2007,11,27,03,01,5.10
2007,11,27,03,02,5.10
2007,11,27,03,03,5.10
2007,11,27,03,04,5.10
2007,11,27,03,05,5.10
2007,11,27,03,06,5.00
2007,11,27,03,07,4.90
2007,11,27,03,08,5.00
2007,11,27,03,09,5.10
2007,11,27,03,10,5.10
2007,11,27,03,11,5.10
2007,11,27,03,12,5.10
2007,11,27,03,13,5.10
2007,11,27,03,14,5.10
2007,11,27,03,15,5.10
2007,11,27,03,16,5.10
2007,11,27,03,17,5.10
2007,11,27,03,18,5.20
2007,11,27,03,19,5.10
2007,11,27,03,20,5.10
2007,11,27,03,21,5.10
2007,11,27,03,22,5.10
2007,11,27,03,23,5.10
2007,11,27,03,24,5.10
2007,11,27,03,25,5.10
2007,11,27,03,26,5.10
2007,11,27,03,27,5.00
2007,11,27,03,28,4.90
2007,11,27,03,29,4.90
2007,11,27,03,30,4.90
2007,11,27,03,31,4.90
2007,11,27,03,32,4.90
2007,11,27,03,33,4.90
2007,11,27,03,34,4.90
2007,11,27,03,35,4.90
2007,11,27,03,36,4.90
2007,11,27,03,37,4.90
2007,11,27,03,38,4.90
2007,11,27,03,39,4.90
2007,11,27,03,40,4.90
2007,11,27,03,41,4.90
2007,11,27,03,42,4.90
2007,11,27,03,43,4.80
2007,11,27,03,44,4.80
2007,11,27,03,45,4.70
2007,11,27,03,46,4.60
2007,11,27,03,47,4.60
2007,11,27,03,48,4.50
2007,11,27,03,49,4.50
2007,11,27,03,50,4.40
2007,11,27,03,51,4.30
2007,11,27,03,52,4.20
2007,11,27,03,53,4.20
2007,11,27,03,54,4.10
2007,11,27,03,55,4.00
2007,11,27,03,56,4.00
2007,11,27,03,57,3.90
2007,11,27,03,58,3.80
2007,11,27,03,59,3.80
2007,11,27,04,00,3.80
2007,11,27,04,01,3.80
2007,11,27,04,02,3.80
2007,11,27,04,03,3.80
2007,11,27,04,04,3.80
2007,11,27,04,05,3.80
2007,11,27,04,06,3.80
2007,11,27,04,07,3.80
2007,11,27,04,08,3.80
2007,11,27,04,09,3.80
2007,11,27,04,10,3.70
2007,11,27,04,11,3.60
2007,11,27,04,12,3.50
2007,11,27,04,13,3.40
2007,11,27,04,14,3.30
2007,11,27,04,15,3.30
2007,11,27,04,16,3.20
2007,11,27,04,17,3.20
2007,11,27,04,18,3.20
2007,11,27,04,19,3.20
2007,11,27,04,20,3.20
2007,11,27,04,21,3.20
2007,11,27,04,22,3.10
2007,11,27,04,23,3.10
2007,11,27,04,24,3.10
2007,11,27,04,25,3.10
2007,11,27,04,26,3.10
2007,11,27,04,27,3.10
2007,11,27,04,28,3.10
2007,11,27,04,29,3.10
2007,11,27,04,30,3.10
2007,11,27,04,31,3.10
2007,11,27,04,32,3.10
2007,11,27,04,33,3.10
2007,11,27,04,34,3.10
2007,11,27,04,35,3.10
2007,11,27,04,36,3.10
2007,11,27,04,37,3.20
2007,11,27,04,38,3.20
2007,11,27,04,39,3.20
2007,11,27,04,40,3.30
2007,11,27,04,41,3.30
2007,11,27,04,42,3.30
2007,11,27,04,43,3.30
2007,11,27,04,44,3.30
2007,11,27,04,45,3.30
2007,11,27,04,46,3.30
2007,11,27,04,47,3.30
2007,11,27,04,48,3.20
2007,11,27,04,49,3.20
2007,11,27,04,50,3.20
2007,11,27,04,51,3.10
2007,11,27,04,52,3.10
2007,11,27,04,53,3.10
2007,11,27,04,54,3.10
2007,11,27,04,55,3.10
2007,11,27,04,56,3.10
2007,11,27,04,57,3.10
2007,11,27,04,58,3.00
2007,11,27,04,59,2.90
2007,11,27,05,00,2.90
2007,11,27,05,01,2.90
2007,11,27,05,02,2.90
2007,11,27,05,03,2.80
2007,11,27,05,04,2.80
2007,11,27,05,05,2.70
2007,11,27,05,06,2.70
2007,11,27,05,07,2.70
2007,11,27,05,08,2.60
2007,11,27,05,09,2.60
2007,11,27,05,10,2.60
2007,11,27,05,11,2.50
2007,11,27,05,12,2.50
2007,11,27,05,13,2.40
2007,11,27,05,14,2.40
2007,11,27,05,15,2.30
2007,11,27,05,16,2.20
2007,11,27,05,17,2.20
2007,11,27,05,18,2.20
2007,11,27,05,19,2.10
2007,11,27,05,20,2.00
2007,11,27,05,21,2.00
2007,11,27,05,22,1.90
2007,11,27,05,23,1.90
2007,11,27,05,24,1.80
2007,11,27,05,25,1.80
2007,11,27,05,26,1.80
2007,11,27,05,27,1.80
2007,11,27,05,28,1.70
2007,11,27,05,29,1.70
2007,11,27,05,30,1.70
2007,11,27,05,31,1.60
2007,11,27,05,32,1.60
2007,11,27,05,33,1.60
2007,11,27,05,34,1.50
2007,11,27,05,35,1.50
2007,11,27,05,36,1.50
2007,11,27,05,37,1.50
2007,11,27,05,38,1.40
2007,11,27,05,39,1.40
2007,11,27,05,40,1.40
2007,11,27,05,41,1.40
2007,11,27,05,42,1.30
2007,11,27,05,43,1.30
2007,11,27,05,44,1.30
2007,11,27,05,45,1.30
2007,11,27,05,46,1.30
2007,11,27,05,47,1.30
2007,11,27,05,48,1.30
2007,11,27,05,49,1.30
2007,11,27,05,50,1.30
2007,11,27,05,51,1.30
2007,11,27,05,52,1.30
2007,11,27,05,53,1.30
2007,11,27,05,54,1.30
2007,11,27,05,55,1.20
2007,11,27,05,56,1.20
2007,11,27,05,57,1.20
2007,11,27,05,58,1.20
2007,11,27,05,59,1.20
2007,11,27,06,00,1.10
2007,11,27,06,01,1.10
2007,11,27,06,02,1.10
2007,11,27,06,03,1.00
2007,11,27,06,04,1.00
2007,11,27,06,05,1.00
2007,11,27,06,06,0.90
2007,11,27,06,07,0.90
2007,11,27,06,08,0.90
2007,11,27,06,09,0.80
2007,11,27,06,10,0.80
2007,11,27,06,11,0.80
2007,11,27,06,12,0.80
2007,11,27,06,13,0.80
2007,11,27,06,14,0.80
2007,11,27,06,15,0.80
2007,11,27,06,16,0.80
2007,11,27,06,17,0.80
2007,11,27,06,18,0.80
2007,11,27,06,19,0.80
2007,11,27,06,20,0.80
2007,11,27,06,21,0.80
2007,11,27,06,22,0.80
2007,11,27,06,23,0.80
2007,11,27,06,24,0.90
2007,11,27,06,25,0.80
2007,11,27,06,26,0.80
2007,11,27,06,27,0.80
2007,11,27,06,28,0.80
2007,11,27,06,29,0.80
2007,11,27,06,30,0.80
2007,11,27,06,31,0.80
2007,11,27,06,32,0.80
2007,11,27,06,33,0.80
2007,11,27,06,34,0.80
2007,11,27,06,35,0.80
2007,11,27,06,36,0.80
2007,11,27,06,37,0.70
2007,11,27,06,38,0.70
2007,11,27,06,39,0.70
2007,11,27,06,40,0.70
2007,11,27,06,41,0.70
2007,11,27,06,42,0.70
2007,11,27,06,43,0.70
2007,11,27,06,44,0.70
2007,11,27,06,45,0.70
2007,11,27,06,46,0.60
2007,11,27,06,47,0.60
2007,11,27,06,48,0.60
2007,11,27,06,49,0.60
2007,11,27,06,50,0.60
2007,11,27,06,51,0.60
2007,11,27,06,52,0.70
2007,11,27,06,53,0.90
2007,11,27,06,54,1.00
2007,11,27,06,55,1.10
2007,11,27,06,56,1.20
2007,11,27,06,57,1.20
2007,11,27,06,58,1.20
2007,11,27,06,59,1.20
2007,11,27,07,00,1.20
2007,11,27,07,01,1.20
2007,11,27,07,02,1.10
2007,11,27,07,03,1.10
2007,11,27,07,04,1.10
2007,11,27,07,05,1.00
2007,11,27,07,06,1.00
2007,11,27,07,07,1.00
2007,11,27,07,08,0.90
2007,11,27,07,09,0.90
2007,11,27,07,10,0.80
2007,11,27,07,11,0.80
2007,11,27,07,12,0.80
2007,11,27,07,13,0.80
2007,11,27,07,14,0.80
2007,11,27,07,15,0.80
2007,11,27,07,16,0.80
2007,11,27,07,17,0.80
2007,11,27,07,18,0.80
2007,11,27,07,19,0.80
2007,11,27,07,20,0.70
2007,11,27,07,21,0.70
2007,11,27,07,22,0.70
2007,11,27,07,23,0.70
2007,11,27,07,24,0.70
2007,11,27,07,25,0.70
2007,11,27,07,26,0.70
2007,11,27,07,27,0.70
2007,11,27,07,28,0.70
2007,11,27,07,29,0.80
2007,11,27,07,30,0.80
2007,11,27,07,31,0.80
2007,11,27,07,32,0.80
2007,11,27,07,33,0.80
2007,11,27,07,34,0.80
2007,11,27,07,35,0.80
2007,11,27,07,36,0.80
2007,11,27,07,37,0.80
2007,11,27,07,38,0.80
2007,11,27,07,39,0.80
2007,11,27,07,40,0.80
2007,11,27,07,41,0.80
2007,11,27,07,42,0.80
2007,11,27,07,43,0.80
2007,11,27,07,44,0.80
2007,11,27,07,45,0.70
2007,11,27,07,46,0.70
2007,11,27,07,47,0.70
2007,11,27,07,48,0.60
2007,11,27,07,49,0.60
2007,11,27,07,50,0.60
2007,11,27,07,51,0.60
2007,11,27,07,52,0.60
2007,11,27,07,53,0.60
2007,11,27,07,54,0.60
2007,11,27,07,55,0.60
2007,11,27,07,56,0.60
2007,11,27,07,57,0.60
2007,11,27,07,58,0.60
2007,11,27,07,59,0.60
2007,11,27,08,00,0.60
2007,11,27,08,01,0.60
2007,11,27,08,02,0.60
2007,11,27,08,03,0.60
2007,11,27,08,04,0.60
2007,11,27,08,05,0.70
2007,11,27,08,06,0.70
2007,11,27,08,07,0.70
2007,11,27,08,08,0.80
2007,11,27,08,09,0.80
2007,11,27,08,10,1.00
2007,11,27,08,11,1.10
2007,11,27,08,12,1.10
2007,11,27,08,13,1.20
2007,11,27,08,14,1.20
2007,11,27,08,15,1.10
2007,11,27,08,16,1.10
2007,11,27,08,17,1.00
2007,11,27,08,18,1.00
2007,11,27,08,19,0.90
2007,11,27,08,20,0.90
2007,11,27,08,21,0.90
2007,11,27,08,22,0.90
2007,11,27,08,23,1.00
2007,11,27,08,24,1.00
2007,11,27,08,25,1.00
2007,11,27,08,26,1.10
2007,11,27,08,27,1.20
2007,11,27,08,28,1.30
2007,11,27,08,29,1.30
2007,11,27,08,30,1.30
2007,11,27,08,31,1.30
2007,11,27,08,32,1.30
2007,11,27,08,33,1.40
2007,11,27,08,34,1.50
2007,11,27,08,35,1.60
2007,11,27,08,36,1.60
2007,11,27,08,37,1.60
2007,11,27,08,38,1.70
2007,11,27,08,39,1.70
2007,11,27,08,40,1.70
2007,11,27,08,41,1.70
2007,11,27,08,42,1.70
2007,11,27,08,43,1.70
2007,11,27,08,44,1.80
2007,11,27,08,45,1.80
2007,11,27,08,46,1.90
2007,11,27,08,47,1.90
2007,11,27,08,48,2.00
2007,11,27,08,49,2.00
2007,11,27,08,50,2.10
2007,11,27,08,51,2.20
2007,11,27,08,52,2.20
2007,11,27,08,53,2.20
2007,11,27,08,54,2.20
2007,11,27,08,55,2.20
2007,11,27,08,56,2.20
2007,11,27,08,57,2.30
2007,11,27,08,58,2.40
2007,11,27,08,59,2.40
2007,11,27,09,00,2.50
2007,11,27,09,01,2.50
2007,11,27,09,02,2.60
2007,11,27,09,03,2.60
2007,11,27,09,04,2.60
2007,11,27,09,05,2.60
2007,11,27,09,06,2.60
2007,11,27,09,07,2.70
2007,11,27,09,08,2.70
2007,11,27,09,09,2.70
2007,11,27,09,10,2.80
2007,11,27,09,11,2.80
2007,11,27,09,12,2.90
2007,11,27,09,13,2.90
2007,11,27,09,14,2.90
2007,11,27,09,15,3.10
2007,11,27,09,16,3.10
2007,11,27,09,17,3.20
2007,11,27,09,18,3.30
2007,11,27,09,19,3.30
2007,11,27,09,20,3.30
2007,11,27,09,21,3.30
2007,11,27,09,22,3.30
2007,11,27,09,23,3.30
2007,11,27,09,24,3.40
2007,11,27,09,25,3.50
2007,11,27,09,26,3.60
2007,11,27,09,27,3.60
2007,11,27,09,28,3.70
2007,11,27,09,29,3.70
2007,11,27,09,30,3.80
2007,11,27,09,31,3.80
2007,11,27,09,32,3.80
2007,11,27,09,33,3.80
2007,11,27,09,34,3.90
2007,11,27,09,35,3.90
2007,11,27,09,36,4.00
2007,11,27,09,37,4.00
2007,11,27,09,38,4.00
2007,11,27,09,39,4.10
2007,11,27,09,40,4.10
2007,11,27,09,41,4.10
2007,11,27,09,42,4.10
2007,11,27,09,43,4.20
2007,11,27,09,44,4.20
2007,11,27,09,45,4.20
2007,11,27,09,46,4.20
2007,11,27,09,47,4.30
2007,11,27,09,48,4.40
2007,11,27,09,49,4.40
2007,11,27,09,50,4.50
2007,11,27,09,51,4.50
2007,11,27,09,52,4.60
2007,11,27,09,53,4.60
2007,11,27,09,54,4.60
2007,11,27,09,55,4.70
2007,11,27,09,56,4.80
2007,11,27,09,57,4.80
2007,11,27,09,58,4.90
2007,11,27,09,59,4.90
2007,11,27,10,00,5.00
2007,11,27,10,01,5.10
2007,11,27,10,02,5.10
2007,11,27,10,03,5.10
2007,11,27,10,04,5.20
2007,11,27,10,05,5.30
2007,11,27,10,06,5.30
2007,11,27,10,07,5.30
2007,11,27,10,08,5.40
2007,11,27,10,09,5.50
2007,11,27,10,10,5.50
2007,11,27,10,11,5.60
2007,11,27,10,12,5.60
2007,11,27,10,13,5.70
2007,11,27,10,14,5.70
2007,11,27,10,15,5.70
2007,11,27,10,16,5.70
2007,11,27,10,17,5.80
2007,11,27,10,18,5.80
2007,11,27,10,19,5.80
2007,11,27,10,20,5.90
2007,11,27,10,21,5.90
2007,11,27,10,22,5.90
2007,11,27,10,23,6.00
2007,11,27,10,24,6.00
2007,11,27,10,25,6.10
2007,11,27,10,26,6.20
2007,11,27,10,27,6.20
2007,11,27,10,28,6.20
2007,11,27,10,29,6.20
2007,11,27,10,30,6.20
2007,11,27,10,31,6.20
2007,11,27,10,32,6.20
2007,11,27,10,33,6.10
2007,11,27,10,34,6.10
2007,11,27,10,35,6.10
2007,11,27,10,36,6.10
2007,11,27,10,37,6.10
2007,11,27,10,38,6.00
2007,11,27,10,39,6.00
2007,11,27,10,40,6.00
2007,11,27,10,41,6.00
2007,11,27,10,42,6.00
2007,11,27,10,43,6.00
2007,11,27,10,44,6.00
2007,11,27,10,45,6.00
2007,11,27,10,46,6.00
2007,11,27,10,47,6.10
2007,11,27,10,48,6.10
2007,11,27,10,49,6.10
2007,11,27,10,50,6.10
2007,11,27,10,51,6.10
2007,11,27,10,52,6.10
2007,11,27,10,53,6.10
2007,11,27,10,54,6.10
2007,11,27,10,55,6.10
2007,11,27,10,56,6.10
2007,11,27,10,57,6.20
2007,11,27,10,58,6.20
2007,11,27,10,59,6.20
2007,11,27,11,00,6.20
2007,11,27,11,01,6.20
2007,11,27,11,02,6.20
2007,11,27,11,03,6.20
2007,11,27,11,04,6.30
2007,11,27,11,05,6.40
2007,11,27,11,06,6.40
2007,11,27,11,07,6.40
2007,11,27,11,08,6.40
2007,11,27,11,09,6.40
2007,11,27,11,10,6.40
2007,11,27,11,11,6.40
2007,11,27,11,12,6.40
2007,11,27,11,13,6.40
2007,11,27,11,14,6.40
2007,11,27,11,15,6.50
2007,11,27,11,16,6.60
2007,11,27,11,17,6.60
2007,11,27,11,18,6.60
2007,11,27,11,19,6.60
2007,11,27,11,20,6.60
2007,11,27,11,21,6.70
2007,11,27,11,22,6.70
2007,11,27,11,23,6.80
2007,11,27,11,24,6.80
2007,11,27,11,25,6.80
2007,11,27,11,26,6.90
2007,11,27,11,27,6.90
2007,11,27,11,28,6.90
2007,11,27,11,29,7.00
2007,11,27,11,30,7.00
2007,11,27,11,31,7.00
2007,11,27,11,32,7.00
2007,11,27,11,33,7.00
2007,11,27,11,34,7.00
2007,11,27,11,35,7.00
2007,11,27,11,36,7.00
2007,11,27,11,37,7.00
2007,11,27,11,38,7.00
2007,11,27,11,39,7.00
2007,11,27,11,40,7.00
2007,11,27,11,41,7.00
2007,11,27,11,42,7.00
2007,11,27,11,43,7.00
2007,11,27,11,44,7.10
2007,11,27,11,45,7.10
2007,11,27,11,46,7.10
2007,11,27,11,47,7.10
2007,11,27,11,48,7.00
2007,11,27,11,49,7.00
2007,11,27,11,50,7.10
2007,11,27,11,51,7.10
2007,11,27,11,52,7.20
2007,11,27,11,53,7.20
2007,11,27,11,54,7.30
2007,11,27,11,55,7.30
2007,11,27,11,56,7.30
2007,11,27,11,57,7.30
2007,11,27,11,58,7.30
2007,11,27,11,59,7.40
2007,11,27,12,00,7.40
2007,11,27,12,01,7.50
2007,11,27,12,02,7.50
2007,11,27,12,03,7.50
2007,11,27,12,04,7.50
2007,11,27,12,05,7.50
2007,11,27,12,06,7.50
2007,11,27,12,07,7.50
2007,11,27,12,08,7.60
2007,11,27,12,09,7.60
2007,11,27,12,10,7.70
2007,11,27,12,11,7.80
2007,11,27,12,12,7.80
2007,11,27,12,13,7.80
2007,11,27,12,14,7.80
2007,11,27,12,15,7.80
2007,11,27,12,16,7.90
2007,11,27,12,17,7.90
2007,11,27,12,18,8.00
2007,11,27,12,19,8.10
2007,11,27,12,20,8.20
2007,11,27,12,21,8.20
2007,11,27,12,22,8.30
2007,11,27,12,23,8.30
2007,11,27,12,24,8.30
2007,11,27,12,25,8.30
2007,11,27,12,26,8.30
2007,11,27,12,27,8.30
2007,11,27,12,28,8.40
2007,11,27,12,29,8.40
2007,11,27,12,30,8.40
2007,11,27,12,31,8.50
2007,11,27,12,32,8.50
2007,11,27,12,33,8.50
2007,11,27,12,34,8.60
2007,11,27,12,35,8.70
2007,11,27,12,36,8.80
2007,11,27,12,37,8.90
2007,11,27,12,38,9.00
2007,11,27,12,39,9.00
2007,11,27,12,40,9.10
2007,11,27,12,41,9.10
2007,11,27,12,42,9.00
2007,11,27,12,43,9.00
2007,11,27,12,44,9.00
2007,11,27,12,45,9.00
2007,11,27,12,46,9.00
2007,11,27,12,47,9.00
2007,11,27,12,48,9.10
2007,11,27,12,49,9.00
2007,11,27,12,50,9.00
2007,11,27,12,51,9.10
2007,11,27,12,52,9.10
2007,11,27,12,53,9.20
2007,11,27,12,54,9.20
2007,11,27,12,55,9.20
2007,11,27,12,56,9.10
2007,11,27,12,57,9.10
2007,11,27,12,58,9.10
2007,11,27,12,59,9.10
2007,11,27,13,00,9.00
2007,11,27,13,01,9.00
2007,11,27,13,02,8.90
2007,11,27,13,03,9.00
2007,11,27,13,04,9.10
2007,11,27,13,05,9.20
2007,11,27,13,06,9.20
2007,11,27,13,07,9.20
2007,11,27,13,08,9.30
2007,11,27,13,09,9.30
2007,11,27,13,10,9.30
2007,11,27,13,11,9.20
2007,11,27,13,12,9.20
2007,11,27,13,13,9.10
2007,11,27,13,14,9.10
2007,11,27,13,15,9.10
2007,11,27,13,16,9.20
2007,11,27,13,17,9.20
2007,11,27,13,18,9.20
2007,11,27,13,19,9.30
2007,11,27,13,20,9.30
2007,11,27,13,21,9.40
2007,11,27,13,22,9.40
2007,11,27,13,23,9.50
2007,11,27,13,24,9.50
2007,11,27,13,25,9.50
2007,11,27,13,26,9.50
2007,11,27,13,27,9.50
2007,11,27,13,28,9.50
2007,11,27,13,29,9.50
2007,11,27,13,30,9.50
2007,11,27,13,31,9.40
2007,11,27,13,32,9.40
2007,11,27,13,33,9.40
2007,11,27,13,34,9.20
2007,11,27,13,35,9.20
2007,11,27,13,36,9.20
2007,11,27,13,37,9.20
2007,11,27,13,38,9.10
2007,11,27,13,39,9.10
2007,11,27,13,40,9.10
2007,11,27,13,41,9.00
2007,11,27,13,42,8.90
2007,11,27,13,43,8.90
2007,11,27,13,44,8.80
2007,11,27,13,45,8.80
2007,11,27,13,46,8.70
2007,11,27,13,47,8.70
2007,11,27,13,48,8.70
2007,11,27,13,49,8.70
2007,11,27,13,50,8.70
2007,11,27,13,51,8.60
2007,11,27,13,52,8.50
2007,11,27,13,53,8.50
2007,11,27,13,54,8.40
2007,11,27,13,55,8.40
2007,11,27,13,56,8.40
2007,11,27,13,57,8.30
2007,11,27,13,58,8.20
2007,11,27,13,59,8.20
2007,11,27,14,00,8.00
2007,11,27,14,01,7.90
2007,11,27,14,02,7.80
2007,11,27,14,03,7.80
2007,11,27,14,04,7.80
2007,11,27,14,05,7.70
2007,11,27,14,06,7.70
2007,11,27,14,07,7.70
2007,11,27,14,08,7.70
2007,11,27,14,09,7.60
2007,11,27,14,10,7.60
2007,11,27,14,11,7.60
2007,11,27,14,12,7.60
2007,11,27,14,13,7.50
2007,11,27,14,14,7.50
2007,11,27,14,15,7.50
2007,11,27,14,16,7.50
2007,11,27,14,17,7.40
2007,11,27,14,18,7.40
2007,11,27,14,19,7.30
2007,11,27,14,20,7.30
2007,11,27,14,21,7.30
2007,11,27,14,22,7.30
2007,11,27,14,23,7.30
2007,11,27,14,24,7.30
2007,11,27,14,25,7.30
2007,11,27,14,26,7.30
2007,11,27,14,27,7.30
2007,11,27,14,28,7.30
2007,11,27,14,29,7.30
2007,11,27,14,30,7.30
2007,11,27,14,31,7.30
2007,11,27,14,32,7.30
2007,11,27,14,33,7.30
2007,11,27,14,34,7.30
2007,11,27,14,35,7.30
2007,11,27,14,36,7.30
2007,11,27,14,37,7.30
2007,11,27,14,38,7.30
2007,11,27,14,39,7.40
2007,11,27,14,40,7.40
2007,11,27,14,41,7.40
2007,11,27,14,42,7.40
2007,11,27,14,43,7.40
2007,11,27,14,44,7.40
2007,11,27,14,45,7.40
2007,11,27,14,46,7.50
2007,11,27,14,47,7.50
2007,11,27,14,48,7.50
2007,11,27,14,49,7.50
2007,11,27,14,50,7.50
2007,11,27,14,51,7.50
2007,11,27,14,52,7.50
2007,11,27,14,53,7.50
2007,11,27,14,54,7.50
2007,11,27,14,55,7.50
2007,11,27,14,56,7.40
2007,11,27,14,57,7.40
2007,11,27,14,58,7.40
2007,11,27,14,59,7.40
2007,11,27,15,00,7.40
2007,11,27,15,01,7.40
2007,11,27,15,02,7.40
2007,11,27,15,03,7.40
2007,11,27,15,04,7.40
2007,11,27,15,05,7.40
2007,11,27,15,06,7.40
2007,11,27,15,07,7.40
2007,11,27,15,08,7.40
2007,11,27,15,09,7.40
2007,11,27,15,10,7.40
2007,11,27,15,11,7.40
2007,11,27,15,12,7.30
2007,11,27,15,13,7.30
2007,11,27,15,14,7.30
2007,11,27,15,15,7.30
2007,11,27,15,16,7.30
2007,11,27,15,17,7.30
2007,11,27,15,18,7.30
2007,11,27,15,19,7.30
2007,11,27,15,20,7.30
2007,11,27,15,21,7.30
2007,11,27,15,22,7.30
2007,11,27,15,23,7.30
2007,11,27,15,24,7.30
2007,11,27,15,25,7.30
2007,11,27,15,26,7.30
2007,11,27,15,27,7.30
2007,11,27,15,28,7.20
2007,11,27,15,29,7.20
2007,11,27,15,30,7.20
2007,11,27,15,31,7.20
2007,11,27,15,32,7.20
2007,11,27,15,33,7.20
2007,11,27,15,34,7.20
2007,11,27,15,35,7.20
2007,11,27,15,36,7.20
2007,11,27,15,37,7.20
2007,11,27,15,38,7.20
2007,11,27,15,39,7.20
2007,11,27,15,40,7.10
2007,11,27,15,41,7.10
2007,11,27,15,42,7.10
2007,11,27,15,43,7.10
2007,11,27,15,44,7.10
2007,11,27,15,45,7.10
2007,11,27,15,46,7.10
2007,11,27,15,47,7.10
2007,11,27,15,48,7.10
2007,11,27,15,49,7.10
2007,11,27,15,50,7.10
2007,11,27,15,51,7.10
2007,11,27,15,52,7.10
2007,11,27,15,53,7.10
2007,11,27,15,54,7.10
2007,11,27,15,55,7.10
2007,11,27,15,56,7.10
2007,11,27,15,57,7.10
2007,11,27,15,58,7.10
2007,11,27,15,59,7.10
2007,11,27,16,00,7.10
2007,11,27,16,01,7.10
2007,11,27,16,02,7.10
2007,11,27,16,03,7.10
2007,11,27,16,04,7.10
2007,11,27,16,05,7.10
2007,11,27,16,06,7.10
2007,11,27,16,07,7.10
2007,11,27,16,08,7.10
2007,11,27,16,09,7.10
2007,11,27,16,10,7.10
2007,11,27,16,11,7.10
2007,11,27,16,12,7.10
2007,11,27,16,13,7.10
2007,11,27,16,14,7.00
2007,11,27,16,15,7.00
2007,11,27,16,16,7.00
2007,11,27,16,17,7.00
2007,11,27,16,18,7.00
2007,11,27,16,19,7.00
2007,11,27,16,20,6.90
2007,11,27,16,21,6.90
2007,11,27,16,22,6.90
2007,11,27,16,23,6.90
2007,11,27,16,24,6.90
2007,11,27,16,25,6.90
2007,11,27,16,26,6.80
2007,11,27,16,27,6.80
2007,11,27,16,28,6.80
2007,11,27,16,29,6.80
2007,11,27,16,30,6.80
2007,11,27,16,31,6.80
2007,11,27,16,32,6.80
2007,11,27,16,33,6.80
2007,11,27,16,34,6.80
2007,11,27,16,35,6.80
2007,11,27,16,36,6.80
2007,11,27,16,37,6.80
2007,11,27,16,38,6.80
2007,11,27,16,39,6.80
2007,11,27,16,40,6.80
2007,11,27,16,41,6.80
2007,11,27,16,42,6.80
2007,11,27,16,43,6.70
2007,11,27,16,44,6.70
2007,11,27,16,45,6.70
2007,11,27,16,46,6.70
2007,11,27,16,47,6.70
2007,11,27,16,48,6.70
2007,11,27,16,49,6.70
2007,11,27,16,50,6.60
2007,11,27,16,51,6.60
2007,11,27,16,52,6.60
2007,11,27,16,53,6.60
2007,11,27,16,54,6.60
2007,11,27,16,55,6.60
2007,11,27,16,56,6.60
2007,11,27,16,57,6.60
2007,11,27,16,58,6.60
2007,11,27,16,59,6.60
2007,11,27,17,00,6.60
2007,11,27,17,01,6.60
2007,11,27,17,02,6.40
2007,11,27,17,03,6.40
2007,11,27,17,04,6.40
2007,11,27,17,05,6.40
2007,11,27,17,06,6.40
2007,11,27,17,07,6.40
2007,11,27,17,08,6.40
2007,11,27,17,09,6.40
2007,11,27,17,10,6.40
2007,11,27,17,11,6.40
2007,11,27,17,12,6.30
2007,11,27,17,13,6.30
2007,11,27,17,14,6.20
2007,11,27,17,15,6.20
2007,11,27,17,16,6.20
2007,11,27,17,17,6.10
2007,11,27,17,18,6.10
2007,11,27,17,19,6.10
2007,11,27,17,20,6.10
2007,11,27,17,21,6.00
2007,11,27,17,22,6.00
2007,11,27,17,23,6.00
2007,11,27,17,24,6.00
2007,11,27,17,25,6.00
2007,11,27,17,26,6.00
2007,11,27,17,27,6.00
2007,11,27,17,28,6.00
2007,11,27,17,29,5.90
2007,11,27,17,30,5.90
2007,11,27,17,31,5.90
2007,11,27,17,32,5.90
2007,11,27,17,33,5.80
2007,11,27,17,34,5.80
2007,11,27,17,35,5.80
2007,11,27,17,36,5.80
2007,11,27,17,37,5.80
2007,11,27,17,38,5.80
2007,11,27,17,39,5.80
2007,11,27,17,40,5.70
2007,11,27,17,41,5.70
2007,11,27,17,42,5.70
2007,11,27,17,43,5.70
2007,11,27,17,44,5.70
2007,11,27,17,45,5.70
2007,11,27,17,46,5.70
2007,11,27,17,47,5.70
2007,11,27,17,48,5.70
2007,11,27,17,49,5.70
2007,11,27,17,50,5.60
2007,11,27,17,51,5.60
2007,11,27,17,52,5.60
2007,11,27,17,53,5.60
2007,11,27,17,54,5.50
2007,11,27,17,55,5.50
2007,11,27,17,56,5.50
2007,11,27,17,57,5.50
2007,11,27,17,58,5.50
2007,11,27,17,59,5.50
2007,11,27,18,00,5.40
2007,11,27,18,01,5.40
2007,11,27,18,02,5.40
2007,11,27,18,03,5.30
2007,11,27,18,04,5.30
2007,11,27,18,05,5.30
2007,11,27,18,06,5.30